Wind_Speed
7 6 7 7 8 9 10 12 12 11 11 11 10 9 9 8 7 7 7 7 7 7 7 8 8 7 7 8 8 8 8 8 8 9 9 9 9 9 9 9 9 9 9
6 5 6 7 8 9 10 11 11 11 11 10 10 9 9 8 7 7 7 7 7 7 7 7 7 7 7 7 7 7 7 8 8 8 8 8 9 9 9 9 8 8 8
5 5 6 7 8 8 9 10 11 11 10 10 9 9 9 8 7 7 7 7 7 7 7 7 7 6 6 6 6 6 6 7 8 7 7 8 8 8 8 8 8 8 8
5 5 6 7 7 8 8 9 10 10 10 9 9 9 8 7 7 7 7 7 7 6 6 6 6 6 6 6 6 6 6 7 7 7 7 7 8 8 8 7 7 7 8
5 6 6 7 7 7 8 8 9 9 10 9 9 8 7 7 7 6 7 7 6 6 6 6 6 6 6 6 5 5 6 6 6 6 6 7 7 7 7 7 7 7 7
4 5 6 6 6 7 7 8 8 8 9 8 8 7 7 7 6 7 7 6 6 6 6 5 5 5 5 5 5 5 5 5 5 6 6 6 6 6 6 6 6 6 6
4 5 6 6 6 7 7 8 8 8 8 7 7 6 6 6 6 6 6 6 6 6 5 5 5 5 5 5 5 5 5 5 5 5 6 6 6 6 6 6 6 6 6
4 5 5 6 6 6 6 7 7 7 7 6 6 6 5 6 6 6 6 5 5 5 4 4 4 5 5 5 5 5 4 4 5 5 6 6 6 5 5 5 5 5 5
5 5 5 5 5 6 6 7 7 7 6 6 5 5 5 5 5 5 5 5 5 4 4 4 4 4 4 4 4 4 4 4 4 5 5 5 5 5 5 5 5 5 5
6 6 5 5 5 5 6 6 6 5 5 5 5 4 4 4 4 4 4 4 4 4 3 3 3 4 4 3 3 4 4 4 4 4 4 5 5 5 4 4 4 5 5
5 6 5 5 4 4 5 5 5 4 4 4 4 4 4 4 4 3 4 4 3 3 3 3 3 3 3 3 3 3 3 3 3 3 4 4 4 4 4 4 4 4 4
5 5 4 4 3 3 3 3 4 4 3 3 3 3 3 3 3 3 3 3 3 3 3 2 2 2 3 3 3 3 3 3 2 3 3 3 3 3 3 3 2 3 3
5 5 4 3 2 2 2 3 3 3 3 3 2 2 1 2 2 3 3 2 2 2 2 2 1 2 2 2 2 2 2 2 2 2 2 2 2 2 2 2 2 1 2
5 4 4 3 2 2 1 2 2 3 3 3 2 2 2 2 1 1 2 1 2 2 2 2 1 1 2 2 2 2 2 2 2 2 2 2 2 2 2 2 2 1 0
5 4 3 3 2 1 1 1 2 3 3 3 3 3 2 2 1 1 1 1 1 1 1 1 1 1 1 1 1 1 2 2 2 2 1 1 1 1 1 2 2 1 1
5 4 3 2 1 1 2 2 3 3 3 3 3 3 2 2 2 2 2 1 2 2 2 2 1 1 1 1 0 1 1 2 2 2 1 2 2 2 2 2 2 1 1
5 5 4 2 1 1 0 2 3 4 3 3 3 4 3 3 3 3 3 3 2 2 2 2 2 1 1 1 1 0 1 1 1 1 1 2 2 2 2 2 2 1 1
5 5 5 4 2 1 1 2 3 4 4 5 5 4 4 5 4 5 5 4 4 3 3 3 2 2 2 2 2 1 1 1 1 2 2 2 2 2 2 2 2 2 2
7 6 5 4 4 3 2 3 4 4 5 5 5 5 6 6 6 6 7 6 5 5 5 4 3 3 3 3 3 3 3 3 3 3 3 3 3 3 3 3 3 3 4
8 7 6 4 4 4 4 4 4 4 5 6 6 6 7 8 8 8 8 7 7 7 7 6 5 4 4 4 4 4 4 4 4 4 4 4 4 4 4 4 4 4 4
8 8 6 5 5 6 5 4 4 5 6 6 7 7 8 9 9 9 9 9 9 8 8 8 7 6 6 6 6 6 6 6 5 5 5 6 5 5 5 6 5 5 6
9 8 7 7 6 6 6 5 4 4 5 6 7 8 9 10 10 10 10 9 9 10 10 9 9 9 8 8 8 8 8 8 7 7 7 7 7 7 7 7 7 7 8
9 8 8 8 7 7 7 6 6 6 6 7 7 8 9 9 10 10 10 10 10 10 10 11 11 11 10 10 10 10 10 10 10 9 9 9 9 9 9 9 9 9 10
10 9 9 9 8 7 7 8 8 8 8 8 9 9 9 9 10 10 10 11 11 11 11 11 12 12 13 13 13 12 12 12 12 12 11 11 11 11 11 11 11 11 11
11 10 10 10 9 9 9 9 9 9 9 9 10 10 10 10 10 10 10 11 11 12 12 12 13 13 14 14 14 14 14 14 14 14 14 13 13 13 13 13 13 13 13
13 13 12 12 11 11 10 10 10 10 10 10 10 11 11 11 11 11 11 12 12 13 13 13 13 14 14 15 16 16 16 16 16 16 16 16 16 16 15 15 15 16 16
Wind_Direction
83 86 87 90 90 88 86 86 83 80 77 75 75 73 75 75 77 80 82 85 87 88 87 87 90 90 87 85 84 83 82 82 83 84 85 85 84 84 85 85 84 85 87
82 87 88 89 88 87 89 88 85 81 78 76 76 74 73 73 75 79 81 83 86 85 85 87 89 87 84 83 83 82 82 82 82 82 84 87 85 83 84 83 83 84 86
82 90 91 88 88 90 90 90 87 84 82 80 78 75 74 75 77 78 78 79 80 81 83 85 86 85 84 84 82 81 82 80 78 77 78 81 83 82 80 81 81 82 84
84 94 91 89 89 90 92 94 92 89 82 80 79 78 75 73 74 76 77 75 76 80 84 85 84 84 83 84 82 81 81 80 77 75 75 78 79 78 78 79 79 79 81
93 99 93 91 90 90 91 96 97 87 82 79 78 77 77 73 73 76 76 76 78 80 84 87 88 85 85 85 83 84 83 80 76 73 73 76 77 75 75 75 76 76 78
97 100 94 90 89 90 89 92 93 90 87 82 80 78 77 75 75 75 74 79 80 80 83 87 92 89 87 87 84 85 86 82 77 75 75 74 74 74 73 71 72 75 77
88 96 94 91 92 92 93 93 93 92 89 88 84 81 78 76 76 74 78 80 76 76 81 84 90 90 86 88 88 87 89 84 79 74 76 72 70 70 71 72 71 73 75
81 91 92 94 96 96 96 98 95 93 91 87 84 79 75 70 71 75 81 81 76 77 85 87 86 87 87 90 94 88 80 83 75 71 69 66 64 65 70 70 66 67 72
79 84 90 98 104 103 100 101 101 98 94 88 86 83 79 73 72 76 80 80 76 76 83 88 89 89 92 92 93 89 81 77 72 63 63 63 60 60 65 67 62 63 71
73 74 82 94 100 109 109 110 110 108 103 95 90 86 80 75 74 78 80 83 80 80 84 92 100 95 90 86 87 88 83 75 67 57 57 59 58 56 58 62 62 61 67
63 68 78 89 97 105 112 117 116 115 114 108 101 94 83 75 75 79 80 85 83 89 94 101 103 92 81 75 78 84 87 75 63 55 54 58 58 53 52 58 57 54 62
53 58 71 81 96 106 112 123 129 124 124 121 113 107 92 82 83 85 84 88 88 97 110 110 95 83 77 80 80 81 77 66 54 54 54 56 53 50 44 44 44 50 63
45 51 62 72 86 111 124 133 134 134 137 135 129 127 115 95 86 88 85 86 90 96 113 127 123 99 83 78 83 83 73 60 51 55 49 48 45 38 29 24 30 53 72
37 44 53 66 82 109 132 141 144 151 156 155 161 162 152 129 102 105 112 106 106 102 119 138 135 117 107 83 74 69 62 56 55 55 46 35 28 21 14 13 14 22 58
22 28 38 54 86 141 165 178 180 168 171 171 179 176 172 179 182 165 173 172 170 135 141 152 152 158 139 111 68 46 33 39 48 52 35 10 3 359 357 4 358 339 324
4 7 11 27 58 175 201 206 204 192 191 195 198 196 200 211 216 214 212 229 233 215 197 188 178 181 182 171 51 32 18 14 29 37 19 0 347 337 335 344 342 329 307
355 358 358 4 4 344 258 222 213 212 214 216 220 215 222 229 225 230 231 240 245 231 218 208 207 202 210 213 233 261 356 2 2 359 359 347 332 329 326 323 325 309 288
342 345 352 356 344 325 295 248 231 228 229 225 226 226 229 233 234 231 232 236 238 232 222 222 214 220 227 232 223 234 276 305 317 325 322 319 318 315 310 310 304 295 293
335 327 334 341 338 323 306 277 253 245 238 231 228 232 236 238 240 237 233 235 236 237 236 232 231 241 242 244 244 250 268 278 281 291 296 297 301 301 302 304 299 295 296
328 324 308 322 327 319 302 284 268 257 244 237 238 241 241 242 245 245 241 237 236 237 239 238 239 244 246 247 248 253 266 275 279 281 281 282 286 289 295 294 291 296 297
318 323 309 314 311 304 302 292 291 269 252 242 242 246 245 246 246 246 244 240 240 239 240 242 244 245 246 250 253 257 264 268 274 279 280 279 277 278 283 284 285 288 292
308 309 309 311 298 292 291 294 296 279 260 260 258 252 249 249 248 247 242 242 246 246 246 245 243 245 249 252 255 258 262 263 265 272 275 276 277 276 275 277 277 282 286
304 301 301 299 291 285 284 286 288 277 266 263 261 255 252 253 251 249 249 246 247 248 251 251 246 246 251 255 255 258 258 258 259 265 270 275 278 278 275 273 272 276 279
301 293 286 286 287 285 283 285 284 273 270 267 257 255 254 257 253 250 249 245 248 250 252 254 250 250 253 257 257 257 258 259 260 264 268 272 277 278 275 275 275 274 276
295 289 281 275 277 281 279 276 276 271 271 268 259 254 255 255 250 251 252 251 249 250 252 255 256 255 255 256 256 257 259 260 260 262 266 270 273 275 276 276 275 274 275
287 285 279 276 271 273 273 272 270 272 276 272 261 256 255 251 250 250 253 252 251 253 254 256 259 258 257 258 257 257 258 260 260 261 264 267 271 273 274 277 276 274 276
Height
5887 5887 5887 5887 5888 5888 5888 5889 5890 5890 5891 5892 5893 5893 5894 5895 5895 5896 5896 5897 5897 5897 5898 5898 5898 5898 5898 5898 5898 5898 5898 5899 5898 5898 5898 5898 5898 5898 5898 5898 5898 5898 5897
5888 5888 5888 5889 5889 5889 5889 5890 5891 5892 5893 5893 5894 5895 5896 5896 5897 5897 5898 5898 5898 5899 5899 5899 5899 5899 5900 5900 5900 5900 5900 5900 5900 5900 5899 5899 5899 5899 5899 5899 5899 5899 5899
5889 5889 5890 5890 5890 5890 5891 5891 5892 5893 5894 5895 5896 5896 5897 5898 5898 5899 5899 5899 5900 5900 5900 5900 5900 5900 5901 5901 5901 5901 5901 5901 5901 5901 5901 5901 5900 5900 5900 5901 5900 5900 5900
5890 5890 5891 5891 5891 5891 5892 5892 5893 5894 5895 5896 5897 5897 5898 5899 5899 5900 5900 5901 5901 5901 5901 5901 5901 5902 5902 5902 5902 5902 5902 5902 5902 5902 5902 5902 5902 5902 5902 5902 5901 5901 5901
5891 5891 5891 5892 5892 5892 5893 5893 5894 5895 5896 5897 5898 5899 5899 5900 5900 5901 5901 5902 5902 5902 5902 5902 5903 5903 5903 5903 5903 5903 5903 5904 5904 5903 5903 5903 5903 5903 5903 5903 5902 5902 5902
5892 5892 5892 5892 5893 5893 5894 5895 5895 5896 5897 5898 5898 5899 5900 5901 5901 5901 5902 5902 5902 5903 5903 5903 5904 5904 5904 5904 5904 5904 5904 5904 5904 5904 5904 5904 5904 5904 5904 5904 5903 5903 5903
5893 5893 5893 5893 5893 5894 5895 5895 5896 5897 5898 5899 5899 5900 5901 5901 5902 5902 5903 5903 5903 5903 5904 5904 5904 5905 5905 5905 5905 5905 5905 5905 5905 5905 5905 5905 5905 5905 5905 5904 5904 5904 5904
5894 5893 5893 5894 5894 5895 5895 5896 5897 5898 5899 5900 5900 5901 5901 5902 5902 5903 5903 5904 5904 5904 5904 5905 5905 5905 5906 5906 5906 5906 5906 5906 5906 5906 5906 5906 5906 5906 5906 5905 5905 5905 5905
5894 5894 5894 5894 5895 5895 5896 5897 5898 5898 5899 5900 5901 5901 5902 5902 5903 5903 5904 5905 5905 5905 5905 5905 5906 5906 5906 5907 5907 5907 5907 5907 5907 5907 5907 5907 5907 5907 5907 5906 5906 5906 5906
5895 5895 5895 5895 5895 5896 5896 5897 5898 5899 5900 5900 5901 5901 5902 5903 5903 5904 5904 5905 5905 5906 5906 5906 5906 5907 5907 5907 5908 5908 5908 5908 5908 5908 5908 5908 5908 5908 5908 5907 5907 5907 5907
5896 5896 5896 5896 5896 5896 5897 5898 5898 5899 5900 5900 5901 5902 5902 5903 5904 5904 5905 5905 5905 5906 5906 5906 5907 5907 5908 5908 5908 5908 5909 5909 5909 5909 5909 5908 5908 5908 5908 5908 5908 5908 5908
5897 5897 5896 5896 5896 5897 5897 5898 5898 5899 5900 5901 5901 5902 5903 5903 5904 5904 5905 5906 5906 5906 5906 5907 5907 5908 5908 5909 5909 5909 5909 5909 5909 5909 5909 5909 5909 5909 5909 5909 5909 5909 5909
5897 5897 5897 5897 5897 5897 5897 5898 5898 5899 5900 5901 5901 5902 5903 5904 5904 5905 5905 5906 5906 5907 5907 5907 5907 5908 5909 5909 5909 5909 5910 5910 5909 5909 5909 5909 5909 5909 5909 5909 5909 5909 5909
5898 5898 5897 5897 5897 5897 5897 5898 5898 5899 5900 5901 5901 5902 5903 5904 5904 5905 5906 5906 5907 5907 5907 5908 5908 5909 5909 5909 5910 5910 5910 5910 5910 5910 5910 5910 5910 5910 5910 5910 5909 5909 5910
5899 5898 5898 5897 5897 5897 5898 5898 5898 5899 5900 5900 5901 5902 5903 5904 5904 5905 5906 5906 5907 5907 5908 5908 5908 5909 5909 5910 5910 5910 5910 5910 5910 5910 5910 5910 5910 5910 5910 5910 5910 5910 5910
5899 5898 5898 5898 5897 5897 5897 5898 5898 5899 5899 5900 5901 5902 5902 5903 5904 5905 5906 5906 5907 5907 5908 5908 5909 5909 5910 5910 5910 5910 5911 5911 5910 5911 5911 5910 5910 5910 5910 5910 5910 5910 5910
5899 5899 5898 5897 5897 5897 5897 5897 5898 5898 5899 5899 5900 5901 5902 5903 5904 5905 5905 5906 5906 5907 5908 5908 5909 5909 5910 5910 5910 5911 5911 5911 5911 5911 5911 5911 5910 5910 5910 5910 5910 5910 5910
5899 5898 5898 5898 5897 5897 5897 5897 5897 5898 5898 5899 5899 5900 5901 5902 5903 5904 5905 5905 5906 5906 5907 5908 5908 5909 5910 5910 5910 5910 5911 5911 5911 5911 5911 5911 5910 5910 5910 5910 5910 5910 5910
5899 5898 5898 5897 5897 5897 5897 5897 5897 5897 5897 5898 5898 5899 5900 5901 5902 5903 5904 5904 5905 5906 5907 5907 5908 5909 5909 5909 5910 5910 5910 5910 5910 5910 5910 5910 5910 5910 5910 5910 5910 5910 5910
5898 5896 5896 5897 5897 5897 5896 5896 5896 5896 5896 5896 5897 5898 5899 5900 5901 5901 5902 5903 5904 5905 5906 5906 5907 5908 5908 5909 5909 5910 5910 5910 5910 5910 5910 5910 5910 5910 5910 5910 5909 5909 5909
5897 5896 5895 5896 5896 5896 5896 5895 5895 5895 5895 5895 5895 5896 5897 5898 5899 5900 5901 5902 5903 5904 5905 5905 5906 5907 5907 5908 5908 5909 5909 5909 5909 5909 5909 5909 5909 5909 5909 5909 5909 5909 5908
5896 5896 5895 5895 5895 5895 5895 5895 5895 5894 5894 5894 5894 5895 5896 5897 5898 5898 5899 5900 5901 5902 5903 5904 5905 5905 5906 5906 5907 5907 5908 5908 5908 5908 5908 5908 5908 5907 5907 5908 5908 5907 5907
5895 5894 5894 5894 5893 5893 5893 5894 5894 5894 5893 5893 5893 5894 5894 5895 5896 5897 5897 5898 5899 5900 5901 5902 5903 5903 5904 5905 5905 5906 5906 5906 5906 5907 5906 5906 5906 5906 5906 5906 5906 5906 5906
5893 5892 5893 5893 5893 5892 5892 5892 5892 5892 5891 5891 5891 5892 5892 5892 5893 5894 5895 5896 5897 5898 5898 5899 5900 5901 5902 5902 5903 5903 5904 5904 5904 5904 5905 5905 5904 5904 5904 5904 5904 5904 5903
5891 5890 5891 5891 5891 5891 5890 5890 5890 5890 5889 5889 5889 5889 5890 5890 5891 5892 5893 5894 5894 5895 5896 5897 5897 5898 5899 5899 5900 5900 5901 5901 5901 5902 5902 5902 5902 5902 5902 5901 5901 5901 5901
5888 5888 5888 5888 5888 5888 5888 5887 5887 5887 5887 5887 5887 5887 5887 5888 5888 5889 5890 5891 5892 5893 5893 5894 5895 5895 5896 5896 5896 5897 5897 5898 5898 5898 5899 5898 5898 5898 5898 5898 5898 5898 5898